This demonstration page uses our WeatherBlox Daily Observations layout. Learn more.

Left ArrowRight Arrow

Hourly Observations for September 17, 2020

Temp ( °F °C ) Dew Point ( °F °C ) Humidity (%) Winds ( mph kmh ) Pressure ( in mb ) Visibility ( mi km ) Precip ( " mm )
12:53 am 00:53 Clear 71 21.7 61 16.1 71 71 NNE 5 7 29.98 1015 10 16 0.00 0.00
1:53 am 01:53 Clear 69 20.6 62 16.7 78 78 NNE 7 11 29.98 1015 10 16 0.00 0.00
2:53 am 02:53 Clear 69 20.6 62 16.7 78 78 NNE 5 7 29.98 1015 10 16 0.00 0.00
3:53 am 03:53 Partly Cloudy 69 20.6 59 15 70 70 NE 6 9 29.98 1015 10 16 0.00 0.00
4:53 am 04:53 Clear 68 20 60 15.6 76 76 NE 6 9 29.98 1015 10 16 0.00 0.00
5:53 am 05:53 Mostly Cloudy 65 18.3 60 15.6 84 84 N 7 11 29.99 1016 10 16 0.00 0.00
6:53 am 06:53 Clear 65 18.3 60 15.6 84 84 NNE 3 6 30.01 1016 10 16 0.00 0.00
7:53 am 07:53 Mostly Sunny 64 17.8 61 16.1 90 90 N 5 7 30.05 1018 10 16 0.00 0.00
8:53 am 08:53 Sunny 67 19.4 61 16.1 81 81 NNE 6 9 30.07 1018 10 16 0.00 0.00
9:53 am 09:53 Sunny 73 22.8 63 17.2 71 71 E 9 15 30.09 1019 10 16 0.00 0.00
10:53 am 10:53 Sunny 77 25 61 16.1 58 58 E 10 17 30.08 1019 10 16 0.00 0.00
11:53 am 11:53 Mostly Cloudy 79 26.1 58 14.4 49 49 E 12 19 30.08 1019 10 16 0.00 0.00
12:53 pm 12:53 Partly Cloudy 79 26.1 57 13.9 47 47 E 10 17 30.08 1019 10 16 0.00 0.00
1:53 pm 13:53 Mostly Cloudy 82 27.8 58 14.4 44 44 ENE 14 22 30.05 1018 10 16 0.00 0.00
2:53 pm 14:53 Partly Cloudy 84 28.9 56 13.3 38 38 ENE 7 11 30.01 1016 10 16 0.00 0.00
3:53 pm 15:53 Partly Cloudy 85 29.4 55 12.8 36 36 ENE 12 19 29.98 1015 10 16 0.00 0.00
4:53 pm 16:53 Mostly Sunny 86 30 53 11.7 32 32 ENE 8 13 29.97 1015 10 16 0.00 0.00
5:53 pm 17:53 Mostly Sunny 84 28.9 52 11.1 33 33 VRB 5 7 29.96 1015 10 16 0.00 0.00
6:53 pm 18:53 Partly Cloudy 84 28.9 52 11.1 33 33 E 9 15 29.96 1015 10 16 0.00 0.00
7:53 pm 19:53 Sunny 80 26.7 54 12.2 41 41 ESE 6 9 29.98 1015 10 16 0.00 0.00
8:53 pm 20:53 Clear 76 24.4 57 13.9 52 52 SSE 3 6 29.99 1016 10 16 0.00 0.00
9:53 pm 21:53 Cloudy 75 23.9 59 15 58 58 Calm 30.01 1016 10 16 0.00 0.00
10:53 pm 22:53 Cloudy 75 23.9 56 13.3 52 52 ESE 6 9 30.02 1017 10 16 0.00 0.00
11:53 pm 23:53 Mostly Cloudy 71 21.7 57 13.9 61 61 E 5 7 30.03 1017 10 16 0.00 0.00

Powered by AerisWeather